DW2213 Weather Reports


time (UTC)temp
C
wind
direction
speed
KPH
gust
KPH
rain 1hr
cm
rain 24hr
cm
rain mn
cm
humidity
%
barometer
mb
20260509103305 17 347 4.8 8.0 0.33 1.32 1.32 91 1010.4
20260509102804 17 20 8.0 12.9 0.38 1.22 1.22 92 1010.2
20260509102306 17 25 8.0 11.3 0.41 1.19 1.19 92 1010.2
20260509101804 17 0 9.7 19.3 0.38 1.17 1.17 91 1010.1
20260509101304 17 350 8.0 12.9 0.38 1.17 1.17 92 1010.1
20260509100804 17 34 4.8 9.7 0.36 1.12 1.12 92 1010.2
20260509100305 17 56 6.4 11.3 0.36 1.12 1.12 92 1010.2
20260509095306 17 43 4.8 14.5 0.36 1.07 1.07 91 1010.4
20260509094804 17 73 0.0 4.8 0.41 1.07 1.07 91 1010.3
20260509094304 17 39 6.4 9.7 0.41 1.07 1.07 91 1009.9
20260509093804 16 37 4.8 9.7 0.41 1.04 1.04 91 1009.7
20260509093304 16 61 8.0 19.3 0.43 0.99 0.99 91 1009.4
20260509092804 17 16 9.7 19.3 0.33 0.84 0.84 91 1009.2
20260509092306 17 30 8.0 14.5 0.33 0.79 0.79 91 1009.9
20260509091804 17 25 3.2 12.9 0.36 0.79 0.79 91 1010.2
20260509091304 17 33 3.2 8.0 0.43 0.79 0.79 91 1009.9
20260509090805 17 34 3.2 8.0 0.46 0.76 0.76 91 1010.3
20260509090304 17 65 3.2 11.3 0.51 0.76 0.76 90 1010.4
20260509085804 17 352 8.0 14.5 0.51 0.71 0.71 90 1010.1
20260509085306 17 21 11.3 20.9 0.56 0.71 0.71 90 1010.0
20260509084804 17 20 9.7 14.5 0.51 0.66 0.66 90 1009.9
20260509084304 17 63 3.2 12.9 0.56 0.66 0.66 90 1010.3
20260509083804 17 31 8.0 12.9 0.53 0.64 0.64 90 1010.0
20260509082804 17 12 8.0 19.3 0.46 0.51 0.51 89 1009.9
20260509082307 17 25 4.8 12.9 0.41 0.46 0.46 89 1010.2
20260509081805 17 21 6.4 12.9 0.43 0.43 0.43 89 1010.2
20260509081304 17 12 4.8 9.7 0.36 0.36 0.36 89 1010.4
20260509080805 17 48 4.8 8.0 0.30 0.30 0.30 89 1010.6
20260509080304 17 29 3.2 8.0 0.25 0.25 0.25 89 1010.6
20260509075804 17 28 3.2 4.8 0.20 0.20 0.20 89 1010.6
20260509075306 17 27 3.2 4.8 0.15 0.15 0.15 88 1010.7
20260509074304 17 25 3.2 9.7 0.10 0.10 0.10 88 1010.4
20260509073805 17 26 4.8 9.7 0.10 0.10 0.10 88 1010.2
20260509072804 17 45 8.0 16.1 0.05 0.05 0.05 87 1010.0
20260509072306 17 28 6.4 11.3 0.05 0.05 0.05 87 1010.1
20260509071304 17 35 4.8 9.7 0.00 0.00 0.00 86 1010.3
20260509070804 17 16 4.8 8.0 0.00 0.00 0.00 86 1010.5
20260509070304 17 9 0.0 8.0 0.00 0.00 0.00 86 1010.7
20260509065804 17 28 1.6 8.0 0.00 0.00 0.00 86 1010.6
20260509065306 18 25 3.2 8.0 0.00 0.00 0.00 86 1010.7
20260509064805 17 31 3.2 9.7 0.00 0.00 0.00 86 1010.7
20260509064304 17 87 4.8 9.7 0.00 0.00 0.00 86 1010.8
20260509063804 17 67 3.2 4.8 0.00 0.00 0.00 86 1010.8
20260509063304 17 63 3.2 11.3 0.00 0.00 0.00 87 1010.0
20260509062804 17 37 6.4 16.1 0.00 0.00 0.00 87 1009.7
20260509062306 17 30 4.8 14.5 0.00 0.00 0.00 87 1009.2
20260509061804 17 9 4.8 16.1 0.00 0.00 0.00 88 1009.0
20260509061304 17 19 6.4 12.9 0.00 0.00 0.00 88 1009.1
20260509060804 17 345 3.2 9.7 0.00 0.00 0.00 87 1009.2
20260509060305 16 286 1.6 4.8 0.00 0.00 0.00 87 1009.2
20260509055306 16 280 0.0 3.2 0.00 0.00 0.00 87 1009.5
20260509054804 16 280 1.6 4.8 0.00 0.00 0.00 87 1009.8
20260509054304 16 284 3.2 9.7 0.00 0.00 0.00 87 1009.8
20260509053804 16 335 3.2 4.8 0.00 0.00 0.00 87 1010.0
20260509053304 16 35 3.2 4.8 0.00 0.00 0.00 87 1009.9
20260509052307 16 84 1.6 4.8 0.00 0.00 0.00 86 1010.4
20260509051804 16 84 0.0 1.6 0.00 0.00 0.00 86 1010.3
20260509050804 17 84 0.0 3.2 0.00 0.00 0.00 85 1010.3
20260509050304 17 84 3.2 4.8 0.00 0.00 0.00 84 1010.2
20260509045804 17 84 0.0 3.2 0.00 0.00 0.00 85 1009.9
20260509045306 17 84 3.2 4.8 0.00 0.00 0.00 85 1009.6
20260509044804 17 84 0.0 1.6 0.00 0.00 0.00 84 1009.8
20260509044304 17 84 0.0 1.6 0.00 0.00 0.00 84 1009.7
20260509043804 17 84 1.6 3.2 0.00 0.00 0.00 84 1009.6
20260509043304 17 84 1.6 4.8 0.00 0.00 0.00 84 1009.6
20260509042307 17 84 1.6 3.2 0.00 0.00 0.00 84 1009.6
20260509041804 17 85 0.0 3.2 0.00 0.00 0.00 84 1009.6
20260509041304 17 86 1.6 4.8 0.00 0.00 0.00 84 1009.6
20260509040804 17 85 1.6 3.2 0.00 0.00 0.00 84 1009.8
20260509040304 17 86 1.6 4.8 0.00 0.00 0.00 84 1009.8
20260509035804 17 84 1.6 3.2 0.00 0.00 0.00 85 1010.0
20260509034304 17 84 1.6 4.8 0.00 0.00 0.00 85 1010.0
20260509033805 17 84 0.0 3.2 0.00 0.00 0.00 85 1010.0
20260509033304 17 84 1.6 4.8 0.00 0.00 0.00 85 1009.9
20260509032805 17 86 0.0 3.2 0.00 0.00 0.00 85 1010.1
20260509032306 17 85 0.0 0.0 0.00 0.00 0.00 85 1010.1
20260509031803 17 85 0.0 0.0 0.00 0.00 0.00 85 1010.1
20260509031304 17 86 0.0 3.2 0.00 0.00 0.00 85 1010.1
20260509030304 17 10 1.6 4.8 0.00 0.00 0.00 85 1010.2
20260509025804 17 86 0.0 3.2 0.00 0.00 0.00 85 1010.2
20260509025306 17 81 3.2 4.8 0.00 0.00 0.00 85 1010.3
20260509024804 17 84 3.2 4.8 0.00 0.00 0.00 85 1010.2
20260509024304 17 84 1.6 4.8 0.00 0.00 0.00 85 1010.3
20260509023304 17 82 3.2 4.8 0.00 0.00 0.00 85 1010.3
20260509022804 17 82 1.6 4.8 0.00 0.00 0.00 85 1010.3
20260509022306 17 74 1.6 4.8 0.00 0.00 0.00 85 1010.3
20260509021804 17 75 3.2 4.8 0.00 0.00 0.00 85 1010.4
20260509021304 17 83 4.8 8.0 0.00 0.00 0.00 85 1010.5
20260509020804 17 79 1.6 4.8 0.00 0.00 0.00 85 1010.4
20260509015804 18 62 0.0 3.2 0.00 0.00 0.00 84 1010.5
20260509015306 18 63 0.0 3.2 0.00 0.00 0.00 84 1010.6
20260509014804 18 63 0.0 4.8 0.00 0.00 0.00 84 1010.7
20260509014304 18 63 3.2 4.8 0.00 0.00 0.00 83 1010.7
20260509013805 18 62 0.0 4.8 0.00 0.00 0.00 83 1010.8
20260509013304 18 63 0.0 3.2 0.00 0.00 0.00 83 1010.9
20260509012804 18 63 1.6 4.8 0.00 0.00 0.00 83 1010.9
20260509011804 17 63 1.6 4.8 0.00 0.00 0.00 82 1011.1
20260509011304 17 63 3.2 4.8 0.00 0.00 0.00 82 1011.1
20260509010304 17 63 1.6 3.2 0.00 0.00 0.00 83 1011.2
20260509005306 17 63 0.0 4.8 0.00 0.00 0.00 82 1011.4
20260509004804 17 63 1.6 4.8 0.00 0.00 0.00 82 1011.3
20260509004304 17 65 0.0 1.6 0.00 0.00 0.00 82 1011.4
20260509003804 17 65 0.0 3.2 0.00 0.00 0.00 82 1011.4
20260509002805 17 62 0.0 4.8 0.00 0.00 0.00 82 1011.7
20260509002306 17 63 0.0 1.6 0.00 0.00 0.00 82 1011.7
20260509001804 17 63 1.6 3.2 0.00 0.00 0.00 82 1011.7
20260509001304 17 62 1.6 4.8 0.00 0.00 0.00 82 1011.7
20260509000804 17 64 3.2 4.8 0.00 0.00 0.00 82 1011.8
20260509000304 17 63 1.6 4.8 0.00 0.00 0.00 82 1011.9
20260508235804 17 63 1.6 3.2 0.00 0.00 0.00 81 1012.0
20260508235306 17 63 1.6 3.2 0.00 0.00 0.00 81 1012.0
20260508234804 18 63 0.0 3.2 0.00 0.00 0.00 81 1012.0
20260508234304 18 64 1.6 4.8 0.00 0.00 0.00 81 1011.9
20260508233804 18 53 3.2 8.0 0.00 0.00 0.00 81 1011.9
20260508233305 18 63 1.6 4.8 0.00 0.00 0.00 81 1011.9
20260508232804 18 63 1.6 4.8 0.00 0.00 0.00 81 1012.0
20260508232307 18 62 1.6 3.2 0.00 0.00 0.00 81 1011.9
20260508231304 18 62 0.0 4.8 0.00 0.00 0.00 81 1012.2
20260508230804 18 63 1.6 4.8 0.00 0.00 0.00 81 1012.3
20260508230305 18 63 1.6 4.8 0.00 0.00 0.00 81 1012.3
20260508225804 18 63 0.0 3.2 0.00 0.00 0.00 81 1012.2
20260508225306 18 63 3.2 8.0 0.00 0.00 0.00 81 1012.3
20260508224804 18 69 1.6 4.8 0.00 0.00 0.00 81 1012.2
20260508224304 18 72 0.0 4.8 0.00 0.00 0.00 81 1012.2
20260508223304 18 69 1.6 4.8 0.00 0.00 0.00 81 1012.3
20260508222804 18 69 1.6 4.8 0.00 0.00 0.00 81 1012.2
20260508222306 18 69 3.2 4.8 0.00 0.00 0.00 81 1012.2
20260508221304 18 69 1.6 4.8 0.00 0.00 0.00 81 1012.3
20260508220819 18 69 1.6 4.8 0.00 0.00 0.00 81 1012.4
20260508220305 18 69 1.6 4.8 0.00 0.00 0.00 81 1012.4
20260508215803 18 69 1.6 8.0 0.00 0.00 0.00 81 1012.4
20260508215306 18 114 1.6 8.0 0.00 0.00 0.00 80 1012.5
20260508214304 18 130 1.6 4.8 0.00 0.00 0.00 80 1012.4
20260508213303 18 130 4.8 8.0 0.00 0.00 0.00 80 1012.5
20260508212804 18 126 3.2 8.0 0.00 0.00 0.00 80 1012.5
20260508212306 18 129 1.6 8.0 0.00 0.00 0.00 80 1012.4
20260508211304 18 126 1.6 8.0 0.00 0.00 0.00 80 1012.3
20260508210803 18 131 1.6 4.8 0.00 0.00 0.00 79 1012.3
20260508210304 18 116 3.2 8.0 0.00 0.00 0.00 79 1012.3
20260508205804 18 131 3.2 9.7 0.00 0.00 0.00 79 1012.3
20260508205306 18 130 3.2 4.8 0.00 0.00 0.00 79 1012.3
20260508204304 18 130 3.2 8.0 0.00 0.00 0.00 78 1012.3
20260508203304 18 130 4.8 9.7 0.00 0.00 0.00 77 1012.3
20260508202804 18 130 4.8 9.7 0.00 0.00 0.00 77 1012.1
20260508202306 18 127 3.2 9.7 0.00 0.00 0.00 77 1012.1
20260508201804 18 127 4.8 9.7 0.00 0.00 0.00 77 1012.0
20260508201304 18 126 8.0 14.5 0.00 0.00 0.00 77 1011.8
20260508200803 18 112 4.8 9.7 0.00 0.00 0.00 77 1011.8
20260508200303 18 128 3.2 8.0 0.00 0.00 0.00 77 1011.8
20260508195804 18 101 6.4 9.7 0.00 0.00 0.00 77 1011.8
20260508195306 18 121 8.0 11.3 0.00 0.00 0.00 77 1011.8
20260508194804 18 128 3.2 11.3 0.00 0.00 0.00 77 1011.7
20260508194304 18 142 8.0 12.9 0.00 0.03 0.00 76 1011.7
20260508193803 18 102 8.0 12.9 0.00 0.03 0.00 76 1011.6
20260508193304 18 135 8.0 11.3 0.00 0.03 0.00 76 1011.6
20260508192306 19 134 8.0 12.9 0.00 0.03 0.00 76 1011.6
20260508191804 19 141 8.0 11.3 0.00 0.03 0.00 75 1011.6
20260508191305 19 106 9.7 12.9 0.00 0.05 0.00 75 1011.5
20260508190803 19 146 8.0 12.9 0.00 0.05 0.00 75 1011.4
20260508190304 19 141 9.7 11.3 0.00 0.05 0.00 75 1011.3
20260508185306 19 103 9.7 16.1 0.00 0.05 0.00 75 1011.3
20260508184804 20 89 8.0 14.5 0.00 0.05 0.00 75 1011.2
20260508184304 20 128 9.7 14.5 0.00 0.05 0.00 74 1011.2
20260508183803 20 131 8.0 12.9 0.00 0.05 0.00 74 1011.1
20260508182803 20 122 9.7 14.5 0.00 0.05 0.00 73 1011.0
20260508182306 20 131 8.0 12.9 0.00 0.05 0.00 72 1010.9
20260508181804 20 125 8.0 16.1 0.00 0.05 0.00 72 1010.9
20260508181304 20 122 4.8 11.3 0.00 0.05 0.00 71 1010.7
20260508180804 20 141 8.0 14.5 0.00 0.05 0.00 70 1010.7
20260508180304 20 77 9.7 14.5 0.00 0.05 0.00 69 1010.7
20260508175803 20 99 8.0 14.5 0.00 0.05 0.00 68 1010.8
20260508175306 20 85 11.3 19.3 0.00 0.05 0.00 67 1010.8
20260508174804 20 93 9.7 19.3 0.00 0.05 0.00 65 1010.9
20260508174304 21 121 11.3 14.5 0.00 0.05 0.00 66 1010.9
20260508173805 21 117 8.0 14.5 0.00 0.05 0.00 65 1010.9
20260508173304 21 116 8.0 12.9 0.00 0.05 0.00 65 1010.8
20260508172307 21 102 8.0 12.9 0.00 0.05 0.00 66 1010.8
20260508171805 21 72 4.8 14.5 0.00 0.05 0.00 65 1010.8
20260508171304 21 67 9.7 14.5 0.00 0.05 0.00 64 1010.7
20260508165804 22 89 8.0 12.9 0.00 0.05 0.00 61 1010.8
20260508165306 22 96 9.7 19.3 0.00 0.05 0.00 61 1010.8
20260508164805 22 87 8.0 12.9 0.00 0.05 0.00 63 1010.8
20260508163805 21 58 6.4 11.3 0.00 0.05 0.00 65 1010.7
20260508163305 21 44 9.7 19.3 0.00 0.05 0.00 63 1010.8
20260508162307 22 112 8.0 12.9 0.00 0.05 0.00 63 1010.9
20260508161805 22 103 9.7 12.9 0.00 0.05 0.00 63 1010.8
20260508161304 22 106 9.7 19.3 0.00 0.05 0.00 63 1010.7
20260508160804 22 58 8.0 16.1 0.00 0.05 0.00 63 1010.7
20260508160305 22 62 6.4 12.9 0.00 0.05 0.00 62 1010.7
20260508155804 22 93 3.2 9.7 0.00 0.05 0.00 64 1010.6
20260508155306 22 56 6.4 16.1 0.00 0.05 0.00 63 1010.7
20260508154805 22 95 4.8 9.7 0.00 0.05 0.00 65 1010.6
20260508154305 21 95 6.4 16.1 0.00 0.05 0.00 66 1010.5
20260508153805 21 80 8.0 20.9 0.00 0.05 0.00 68 1010.3
20260508153304 21 19 6.4 14.5 0.00 0.05 0.00 67 1010.4
20260508152306 21 61 6.4 12.9 0.00 0.05 0.00 67 1010.4
20260508151805 21 61 4.8 12.9 0.00 0.05 0.00 68 1010.5
20260508151304 22 73 9.7 14.5 0.00 0.05 0.00 67 1010.6
20260508150304 22 82 6.4 14.5 0.00 0.05 0.00 65 1010.6
20260508145804 22 66 8.0 16.1 0.00 0.05 0.00 63 1010.6
20260508145306 22 63 9.7 20.9 0.00 0.05 0.00 61 1010.4
20260508143304 21 84 4.8 14.5 0.00 0.05 0.00 63 1011.1
20260508142804 21 77 3.2 12.9 0.00 0.05 0.00 63 1011.2
20260508142306 21 69 8.0 12.9 0.00 0.05 0.00 62 1011.2
20260508141805 21 60 6.4 11.3 0.00 0.05 0.00 63 1011.2
20260508141304 21 63 8.0 12.9 0.00 0.05 0.00 62 1011.3
20260508140805 22 41 6.4 19.3 0.00 0.05 0.00 62 1011.3
20260508140304 22 27 4.8 12.9 0.00 0.05 0.00 62 1011.3
20260508135804 22 51 8.0 12.9 0.00 0.05 0.00 61 1011.4
20260508135306 22 68 3.2 11.3 0.00 0.05 0.00 63 1011.5
20260508134804 22 52 8.0 14.5 0.00 0.05 0.00 62 1011.5
20260508134305 22 354 4.8 9.7 0.00 0.05 0.00 64 1011.6
20260508133805 21 82 3.2 11.3 0.00 0.05 0.00 65 1011.6
20260508133304 21 79 9.7 16.1 0.00 0.05 0.00 66 1011.7
20260508132804 21 66 4.8 8.0 0.00 0.05 0.00 65 1011.8
20260508132306 21 55 4.8 14.5 0.00 0.05 0.00 66 1012.0
20260508131804 21 18 6.4 11.3 0.00 0.05 0.00 66 1012.0
20260508131305 21 9 4.8 12.9 0.00 0.05 0.00 65 1012.0
20260508130805 21 86 4.8 11.3 0.00 0.05 0.00 67 1012.0
20260508130305 21 34 6.4 11.3 0.00 0.05 0.00 67 1012.1
20260508125804 20 92 3.2 9.7 0.00 0.05 0.00 68 1012.1
20260508124805 20 31 6.4 14.5 0.00 0.05 0.00 68 1011.9
20260508124304 20 33 8.0 12.9 0.00 0.05 0.00 68 1012.0
20260508123305 20 342 3.2 9.7 0.00 0.05 0.00 69 1012.1
20260508122804 20 334 6.4 9.7 0.00 0.05 0.00 68 1012.3
20260508122307 20 2 4.8 11.3 0.00 0.05 0.00 67 1012.3
20260508121804 21 347 3.2 12.9 0.00 0.05 0.00 67 1012.4
20260508121305 21 5 4.8 9.7 0.00 0.05 0.00 67 1012.4
20260508120304 20 17 4.8 9.7 0.00 0.05 0.00 69 1012.4
20260508115805 20 14 3.2 4.8 0.00 0.05 0.00 69 1012.4
20260508115306 20 5 6.4 9.7 0.00 0.05 0.00 71 1012.5
20260508114805 19 261 3.2 8.0 0.00 0.05 0.00 73 1012.5
20260508114304 18 258 3.2 8.0 0.00 0.05 0.00 74 1012.6
20260508113805 18 251 3.2 4.8 0.00 0.05 0.00 73 1012.7
20260508113305 18 251 1.6 4.8 0.00 0.05 0.00 73 1012.8
20260508112804 18 251 1.6 4.8 0.00 0.05 0.00 73 1012.7
20260508112307 18 285 4.8 9.7 0.00 0.05 0.00 73 1012.7
20260508111804 18 349 3.2 4.8 0.00 0.05 0.00 73 1012.6
20260508111305 18 348 3.2 4.8 0.00 0.05 0.00 73 1012.6
20260508110805 18 351 3.2 8.0 0.00 0.05 0.00 73 1012.5
20260508110304 18 352 4.8 11.3 0.00 0.05 0.00 73 1012.2
20260508105804 18 336 4.8 8.0 0.00 0.05 0.00 74 1012.3
20260508105306 18 299 3.2 8.0 0.00 0.05 0.00 74 1012.3
20260508104805 18 46 3.2 4.8 0.00 0.05 0.00 74 1012.3
20260508104305 18 47 1.6 4.8 0.00 0.05 0.00 74 1012.4